Weather Roundup
Issued by NWS Chicago, IL

Home | Current Version | Previous Version | Graphics & Text | Print | Product List | Glossary On
Versions: 1 2 3 4 5 6 7 8 9 10 11 12 13 14 15 16 17 18 19 20 21 22 23 24 25 26 27 28 29 30 31 32 33 34 35 36 37 38 39 40 41 42 43 44 45 46 47 48 49 50
000
NZUS59 KLOT 022108
HRRLOT

CHICAGO AREA WEATHER ROUNDUP
NATIONAL WEATHER SERVICE CHICAGO/ROMEOVILLE IL
400 PM CDT THU JUL 02 2015

NOTE: "FAIR" INDICATES FEW OR NO CLOUDS BELOW 12,000 FEET WITH NO
SIGNIFICANT WEATHER AND/OR OBSTRUCTIONS TO VISIBILITY.

* THESE STATIONS ARE NOT UNDER NWS QUALITY CONTROL. THEY ALSO MAY NOT
  REPORT WEATHER SUCH AS PRECIPITATION OR FOG.

ILZ005-006-012>014-019>023-022200-
NORTHEAST ILLINOIS

CITY           SKY/WX    TMP DP  RH WIND       PRES   REMARKS
OHARE          PTSUNNY   66  53  63 NE13      29.99S
MIDWAY         PTSUNNY   69  55  60 NE12      29.98S
AURORA         PTSUNNY   71  53  52 E9        29.98S
LANSING*       MOSUNNY   66  55  65 NE12G18   29.98S
JOLIET*        PTSUNNY   73  59  62 NE10      29.97S
WAUKEGAN       SUNNY     62  52  69 NE13      30.00F
DUPAGE AIRPORT PTSUNNY   69  53  56 NE12      29.98S
WHEELING       MOSUNNY   64  51  62 NE9       30.01F
KANKAKEE*      MOSUNNY   73  60  64 NE9       29.95S
MORRIS*        MOSUNNY   73  55  53 E9        29.95S
LEWIS AIRPORT* PTSUNNY   70  54  57 NE9G16    29.98S
NORTHERLY IS     N/A     62  55  77 N17         N/A
$$

WIZ051-052-058>065-066-070>072-022200-
SOUTHEAST WISCONSIN

CITY           SKY/WX    TMP DP  RH WIND       PRES   REMARKS
MILWAUKEE      MOSUNNY   63  49  60 NE13      30.03S
KENOSHA*       SUNNY     67  54  63 NE13      30.01F
RACINE*        SUNNY     64  49  57 NE12      30.04F
BURLINGTON     SUNNY     67  47  49 E8        30.00F
WAUKESHA       SUNNY     66  46  48 NE10      30.03S
WEST BEND      SUNNY     68  45  42 E9        30.03S
$$

INZ001>003-010>013-019-020-022200-
NORTHWEST INDIANA

CITY           SKY/WX    TMP DP  RH WIND       PRES   REMARKS
GARY*          PTSUNNY   66  59  77 N16       29.98F
MICHIGAN CITY* NOT AVBL
RENSSELAER*    NOT AVBL
VALPARAISO     PTSUNNY   73  60  63 N9        29.96S
$$

LMZ740>746-022200-
SOUTHERN LAKE MICHIGAN

STATION/POSITION TIME  SKY/WX   TEMP WIND        PRES    VSBY
                                AIR  DIR/SP/G
                 (UTC)          (F)  (DEG/KT/KT) (MB)    (MI)
HARRISON CRIB    2000            56  360/ 15/ 18   N/A
BURNHAM HARBOR   2100            61  330/ 13/ 15   N/A
CALUMET HARBOR   2000            62  340/ 10/ 15   N/A
BURNS HARBOR     2000            61   10/ 13/ 17 1015.6F
MICHIGAN CITY    2000            62  350/ 16/ 18   N/A
$$

ABBREVIATIONS USED IN REMARKS
   TC - TEMPERATURE IN CELSIUS
  WCI - WIND CHILL INDEX
   HX - HEAT INDEX
  VSB - VISIBILITY
$$


USA.gov is the U.S. government's official web portal to all federal, state and local government web resources and services.